This is the latest recevied weather packets stored in our database for station/object K1BES. If no packets are shown the sender has not sent any weather packets the latest 10 day(s).
| Time | Temp. | Humidity | Pressure | Rain* | Wind** | Luminosity | Snow |
|---|---|---|---|---|---|---|---|
| 1788016680 | 34.44° C | 56% | 1020.5 hPa | 0 mm | - | 137 W/m² | - |
| 1788016378 | 35° C | 59% | 1020.6 hPa | 0 mm | - | 808 W/m² | - |
| 1788016078 | 34.44° C | 60% | 1020.6 hPa | 0 mm | - | 772 W/m² | - |
| 1788015777 | 34.44° C | 59% | 1020.3 hPa | 0 mm | - | 746 W/m² | - |
| 1788015472 | 33.89° C | 59% | 1020.3 hPa | 0 mm | - | 726 W/m² | - |
| 1788015167 | 33.89° C | 60% | 1020.1 hPa | 0 mm | - | 704 W/m² | - |
| 1788014865 | 33.89° C | 63% | 1020.5 hPa | 0 mm | - | 684 W/m² | - |
| 1788014560 | 33.89° C | 62% | 1020.4 hPa | 0 mm | - | 667 W/m² | - |
| 1788014256 | 33.89° C | 63% | 1020.3 hPa | 0 mm | - | 651 W/m² | - |
| 1788013950 | 33.33° C | 66% | 1020.4 hPa | 0 mm | - | 632 W/m² | - |
| 1788013645 | 33.33° C | 66% | 1020.2 hPa | 0 mm | - | 613 W/m² | - |
| 1788013339 | 32.78° C | 67% | 1020.3 hPa | 0 mm | - | 590 W/m² | - |
| 1788013034 | 32.78° C | 65% | 1020.2 hPa | 0 mm | - | 574 W/m² | - |
| 1788012732 | 32.78° C | 68% | 1019.9 hPa | 0 mm | - | 552 W/m² | - |
| 1788012429 | 32.78° C | 68% | 1019.9 hPa | 0 mm | - | 535 W/m² | - |
| 1788012128 | 32.22° C | 69% | 1020 hPa | 0 mm | - | 513 W/m² | - |
| 1788011828 | 32.22° C | 68% | 1019.7 hPa | 0 mm | - | 495 W/m² | - |
| 1788011526 | 32.22° C | 69% | 1019.5 hPa | 0 mm | - | 474 W/m² | - |
| 1788011222 | 32.22° C | 68% | 1019.8 hPa | 0 mm | - | 453 W/m² | - |
| 1788010921 | 32.22° C | 70% | 1019.7 hPa | 0 mm | - | 433 W/m² | - |
| 1788010615 | 31.11° C | 73% | 1019.7 hPa | 0 mm | - | 412 W/m² | - |
| 1788010314 | 30.56° C | 74% | 1019.5 hPa | 0 mm | - | 391 W/m² | - |
| 1788010009 | 30.56° C | 73% | 1019.7 hPa | 0 mm | - | 145 W/m² | - |
| 1788009708 | 30.56° C | 73% | 1019.7 hPa | 0 mm | - | 69 W/m² | - |
| 1788009407 | 30.56° C | 74% | 1019.6 hPa | 0 mm | - | 227 W/m² | - |
* Rain latest hour (hover to see other rain measurements)
** Current wind speed in m/s (hover to see current wind gust speed)